Regional Weather Roundup
Issued by NWS Charleston, WV

Home | Current Version | Previous Version | Text Only | Print | Product List | Glossary Off
Versions: 1 2 3 4 5 6 7 8 9 10 11 12 13 14 15 16 17 18 19 20 21 22 23 24 25 26 27 28 29 30 31 32 33 34 35 36 37 38 39 40 41 42 43 44 45 46 47 48 49 50

000
ASUS41 KRLX 131310
RWRRLX
West Virginia Regional Weather Roundup
National Weather Service Charleston WV
800 AM EST WED DEC 13 2017

Note: "fair" indicates few or no clouds below 12,000 feet with no
significant weather and/or obstructions to visibility.

WVZ003-131400-
Northern Panhandle of West Virginia

CITY           SKY/WX    TMP DP  RH WIND       PRES   REMARKS
WHEELING       CLOUDY    17   6  62 W10       29.85F WCI   5
$$

WVZ009-131400-
Northwest West Virginia

CITY           SKY/WX    TMP DP  RH WIND       PRES   REMARKS
PARKERSBURG    CLEAR     18   8  65 S8        29.96F WCI   8
$$

WVZ006-131400-
Western West Virginia

CITY           SKY/WX    TMP DP  RH WIND       PRES   REMARKS
HUNTINGTON     CLOUDY    19   8  62 SW5       29.97S
$$

WVZ015-131400-
West Central West Virginia

CITY           SKY/WX    TMP DP  RH WIND       PRES   REMARKS
CHARLESTON     MOCLDY    19   8  62 SW6       29.97S
$$

WVZ022-031-131400-
North Central West Virginia

CITY           SKY/WX    TMP DP  RH WIND       PRES   REMARKS
CLARKSBURG     CLOUDY    20  10  65 W14G20    29.89S WCI   7
MORGANTOWN     CLOUDY    18   7  62 W7        29.87S WCI   9
$$

WVZ025-035-042-045-131400-
Southern West Virginia

CITY           SKY/WX    TMP DP  RH WIND       PRES   REMARKS
BECKLEY        CLOUDY    12   3  67 W9        29.85S WCI   0
LOGAN            N/A     18   5  57 CALM      29.94R
BLUEFIELD      CLOUDY    12   1  61 W15G23    29.84R WCI  -4
LEWISBURG      CLOUDY    15   6  66 W8G16     29.84S WCI   4
$$

WVZ047-131400-
Northern Mountains of West Virginia

CITY           SKY/WX    TMP DP  RH WIND       PRES   REMARKS
ELKINS         FLURRIES  15   7  70 W7        29.84S WCI   5
$$

WVZ052-131400-
Eastern Panhandle of West Virginia

CITY           SKY/WX    TMP DP  RH WIND       PRES   REMARKS
MARTINSBURG    CLEAR     19  -1  41 NW16G24   29.82R WCI   4
PETERSBURG     FLURRIES  21   7  56 NW10G24   29.85R WCI   9
$$



USA.gov is the U.S. government's official web portal to all federal, state and local government web resources and services.